Lapse_Rate
0.1 0.4 0.8 1.0 0.8 1.2 2.0 1.9 2.0 3.9 4.0 3.8 4.2 4.3 4.6 4.3 4.6 5.3 5.7 6.0 6.3 6.8 7.5 8.6 9.0 8.9 9.0
0.6 1.1 1.4 0.8 1.2 2.2 2.6 2.4 1.9 3.0 3.9 4.3 4.4 4.6 4.7 5.2 6.0 6.3 6.4 6.7 6.9 7.1 7.7 8.2 9.2 9.3 9.1
1.8 2.0 1.7 1.6 2.0 1.8 1.4 1.9 2.5 2.4 3.2 4.0 4.5 4.8 5.2 6.0 6.3 6.1 6.3 6.5 6.6 6.2 6.1 6.8 8.2 8.5 8.5
3.4 3.7 3.8 3.4 3.9 4.1 3.8 3.3 3.3 3.1 3.2 3.4 3.6 3.8 4.5 5.5 5.6 5.5 5.8 5.8 5.9 5.7 6.4 6.8 7.0 7.0 8.1
3.6 3.6 3.7 3.9 3.8 3.3 4.0 3.8 3.7 2.9 4.4 4.4 4.2 4.2 4.7 4.5 4.4 4.8 5.2 5.8 6.1 6.4 6.7 7.0 7.9 8.1 8.4
2.7 3.8 3.2 3.3 3.5 3.8 3.9 4.9 5.7 3.1 4.3 5.4 3.3 4.7 4.2 4.1 3.7 4.6 5.4 6.0 6.4 6.7 6.6 6.5 6.6 6.5 5.9
3.7 3.5 3.8 3.9 2.9 3.4 4.4 4.6 5.4 5.1 4.6 5.1 4.2 5.1 4.2 4.0 3.7 4.6 5.4 5.9 6.4 6.5 6.4 6.3 6.2 5.6 5.5
3.9 3.7 3.9 3.6 4.0 3.7 4.1 4.3 4.7 4.3 3.7 4.6 4.4 5.2 4.5 4.0 3.0 4.1 5.2 5.3 4.8 4.7 5.1 5.1 5.0 5.0 5.1
3.8 4.0 4.1 4.8 3.8 4.3 4.9 4.9 5.3 4.8 3.8 4.0 3.8 3.5 3.5 3.7 3.5 4.4 3.8 3.7 4.2 4.6 4.9 4.8 4.7 4.8 4.9
3.3 3.1 2.8 3.8 3.7 3.8 3.9 4.0 4.0 4.5 4.0 4.1 3.4 3.2 3.5 3.6 3.5 4.1 4.3 3.9 4.5 4.3 4.2 3.8 3.8 4.3 4.4
3.2 3.3 3.3 3.5 3.6 3.5 3.1 2.9 3.6 3.8 4.4 3.8 3.7 4.5 4.1 3.5 3.8 4.1 4.2 4.1 3.8 3.6 3.1 3.2 3.1 3.7 4.4
3.1 3.3 3.3 3.3 3.1 2.8 2.9 2.9 2.8 2.6 3.0 2.8 3.8 4.1 4.4 4.4 3.4 3.8 4.0 3.8 3.1 2.6 2.7 2.5 2.4 3.3 3.9
2.9 2.9 2.9 2.7 1.7 2.7 3.1 2.8 2.9 2.9 3.3 3.3 3.5 4.2 4.4 4.4 4.0 4.0 3.7 3.3 3.1 2.3 2.8 3.3 3.7 3.6 3.5
3.1 3.0 2.7 2.7 3.3 3.6 3.0 3.3 3.0 3.5 3.9 3.7 3.3 3.7 3.9 4.3 4.3 3.4 4.2 3.7 4.3 4.4 4.2 3.4 3.1 3.8 3.9
3.0 3.4 3.7 3.7 3.7 3.8 3.4 3.5 3.4 3.4 3.4 4.4 3.7 3.2 3.2 3.5 3.5 3.6 3.8 3.8 4.0 4.2 4.4 3.5 3.5 4.0 4.3
3.3 3.6 3.6 3.5 3.5 3.7 3.8 3.8 3.8 3.8 3.5 3.9 3.6 3.9 3.8 3.6 3.5 3.9 4.5 4.1 4.6 4.6 4.8 4.3 3.2 4.4 4.8
3.0 3.4 3.7 3.7 3.8 3.9 4.1 4.0 3.7 3.6 3.4 3.8 3.4 3.5 4.8 5.1 5.0 5.5 4.3 4.8 5.1 4.8 5.7 5.6 5.1 4.2 5.1
Wind_Speed
2 4 4 4 6 6 7 9 10 12 11 11 10 10 10 7 5 3 3 4 5 7 9 10 9 8 8
2 3 4 5 5 4 6 7 8 10 11 10 7 3 2 2 3 3 4 6 7 7 8 8 8 8 7
2 1 2 2 2 2 3 6 7 7 6 5 4 3 2 3 3 3 5 7 7 4 3 6 7 7 8
2 2 2 2 1 2 3 3 3 5 5 6 5 5 3 3 3 3 4 5 6 7 8 8 9 8 8
2 1 1 2 2 2 2 2 3 5 3 3 4 4 5 5 5 7 8 8 9 9 9 9 9 8 9
1 1 2 1 1 2 2 2 2 4 4 4 5 4 4 3 4 6 8 9 9 10 8 8 9 7 8
2 2 1 1 1 1 2 2 2 3 4 2 3 3 2 3 6 8 9 10 9 8 9 7 6 7 9
3 2 1 2 0 1 1 2 1 1 3 2 3 3 5 6 7 7 5 4 2 3 4 6 8 10 11
4 5 4 3 5 2 1 2 1 1 2 2 2 4 3 3 2 2 3 3 5 6 5 9 11 12 14
2 3 5 6 6 3 1 0 1 1 1 3 2 3 3 0 3 2 5 6 9 8 12 15 14 13 11
1 2 2 3 4 4 3 2 1 2 1 3 2 3 2 4 4 6 9 4 10 12 9 9 11 11 8
1 1 1 1 1 2 3 2 4 6 8 5 3 3 4 7 6 3 6 13 10 6 10 11 8 10 13
1 1 1 1 3 4 4 6 7 8 10 9 7 6 6 6 8 8 7 3 13 10 5 8 9 9 7
2 2 2 3 3 3 3 4 5 5 6 8 7 6 7 7 8 9 8 6 3 6 10 11 13 12 13
3 3 3 3 4 3 3 4 5 6 5 5 7 8 11 9 8 9 9 9 8 8 8 9 9 14 14
4 4 4 4 4 4 4 5 6 7 7 5 4 5 3 7 18 9 7 8 7 7 7 8 9 10 16
5 5 5 5 6 5 6 6 7 7 6 5 3 2 5 8 4 16 8 8 7 8 8 9 10 10 13
Wind_Direction
43 13 29 20 17 25 28 41 39 38 36 38 28 28 43 53 41 5 340 312 292 270 267 266 271 273 280
44 29 38 25 24 26 20 31 33 22 23 25 30 20 353 289 252 242 258 262 262 265 268 270 275 277 284
125 64 62 38 33 30 35 28 32 26 30 29 27 20 353 247 212 233 257 260 259 273 274 282 285 287 286
94 95 54 43 41 26 62 46 37 28 33 27 14 11 359 330 301 289 280 278 263 270 267 258 255 252 252
96 101 69 49 28 6 53 18 51 17 352 359 331 313 297 298 282 265 259 254 255 255 254 246 247 259 268
76 90 86 47 20 28 29 7 4 40 346 322 338 324 331 319 297 272 265 261 257 252 258 260 262 269 282
103 79 86 30 54 28 36 15 342 9 328 319 352 323 347 313 316 296 270 253 250 257 258 254 258 262 270
78 111 104 174 59 78 50 354 299 47 359 291 355 321 326 307 307 285 264 179 196 265 276 268 269 273 274
56 61 35 24 172 157 2 352 14 56 20 307 350 317 325 332 335 34 85 314 305 295 289 299 291 285 280
37 44 47 58 82 55 95 82 353 227 133 327 336 360 325 342 332 311 283 287 301 296 300 302 295 284 276
74 68 77 82 82 75 92 111 269 270 49 357 301 317 299 304 298 294 297 298 307 302 298 292 294 273 268
118 95 104 123 31 356 306 264 268 263 293 301 270 276 287 295 280 283 293 299 293 293 298 297 284 270 267
187 190 200 206 296 282 289 285 280 270 274 271 266 277 269 268 276 289 304 289 283 284 269 289 289 284 285
219 216 223 214 257 278 278 288 283 277 265 271 267 271 276 268 276 277 278 273 273 276 289 288 283 269 269
224 236 250 271 278 281 282 291 279 290 291 289 287 273 260 256 267 263 270 267 265 273 274 279 274 274 270
233 240 254 267 280 277 270 270 283 291 291 297 308 319 294 252 228 254 265 268 272 265 263 267 278 273 271
238 242 252 257 274 279 278 277 281 283 281 281 276 260 281 281 280 233 252 268 278 274 266 264 268 277 281